FENGYUN 1C DEB

Satellite information

Favourite Embed

Satellite Type and Status

DEBRISIN ORBIT

Key statistics

Satellite FENGYUN 1C DEB at a glance.

Uptime

9715

Days in orbit

Revolutions

≈ 13.6

Per day

Orbit

SSO

Sun Synchronous Orbit

Inclination

98.9

Latest

Satellite identification and parameters

Extended collection of information and parameters for FENGYUN 1C DEB.

Object identification

Identified? True

Debris? True

Object name: FENGYUN 1C DEB

International designator: 1999-025PJ

Object number (NORAD): 30057

Object ID (CCSDS): 30057

Country: PEOPLES REPUBLIC OF CHINA (PRC)

Current information (Y/N): Y

RCS size: SMALL

Orbital parameters

Period: 106.107 minutes

Inclination: 98.8835 deg

SMA: 7424.292 km

Apoapsis: 1263.358 km

Periapsis: 828.956 km

RAAN: 56.318 deg

Eccentricy: 0.0292554

Argument of periapsis: 144.0761 deg

Mean anomaly: 8.3287 deg

Mean motion: 13.57126064 rev/day

Mean motion (dot): 0.00001651 rev/day2

B* drag term: 0.0017948291 1/REarth

Two-line elements (TLE)

Creation date: Dec. 14, 2025, 3:07 a.m.

Reference frame: TEME

Reference center: EARTH

Epoch: Dec. 13, 2025, 4:04 p.m. UTC

TLE line 0: 0 FENGYUN 1C DEB

TLE line 1: 1 30057U 99025PJ 25347.67010045 .00001651 00000-0 17948-2 0 9998

TLE line 2: 2 30057 98.8835 56.3180 0292554 144.0761 8.3287 13.57126064932480

Live tracking on map

Real-time ground track for satellite FENGYUN 1C DEB.

In-orbit conjunctions

A list of the most updated potential collisions computed for object FENGYUN 1C DEB.

Target Orbit TCA Probability of collision Miss distance Type
FENGYUN 1C DEB SSO 2024-06-10 03:42:52 0.0001037353 780.0 (m) DEBRIS
COSMOS 842 LEO 2024-06-04 21:41:15 0.0005760525 627.0 (m) PAYLOAD

Associated space launch

Chinese polar orbiting meteorological satellite

FENGYUN 1C DEB was lifted into orbit during the mission ‘Long March 4B | Feng Yun 1C’, on board a Long March 4B space rocket.

The launch took place on May 10, 1999, 1:33 a.m. from Launch Complex 7.

For more information about the launch, click the button.

Launch to space Long March 4B | Feng Yun 1C
Long March 4B | Feng Yun 1C

Agency: N/A

Status: Launch Successful

Launch date: May 10, 1999, 1:33 a.m. UTC

Rocket: Long March 4B

Launch pad: Launch Complex 7

Location: Taiyuan Satellite Launch Center, People's Republic of China

...

Latest news about this satellite

There are no fresh news available about this satellite. Check back as we update our databases every day.


Newsletter sign-up

Weekly statistics, charts and insights to help you stay on top of the space industry.